Ellensburg, WA
on Wednesday, November 21, 2012

Wednesday
Previous Day Next Day
Daily Summary
 ActualAverage (KYKM)Record (KYKM)
Temperature
Mean Temperature °F 35°F  
Max Temperature 50°F 45°F 62°F (1980)
Min Temperature 34°F 26°F 0°F (1985)
Degree Days
Heating Degree Days 23 30  
Month to date heating degree days 545  
Since 1 July heating degree days 1249  
Cooling Degree Days 0 0  
Month to date cooling degree days 0  
Year to date cooling degree days 472  
Moisture
Dew Point 31°F   
Average Humidity 72    
Maximum Humidity 83    
Minimum Humidity 48    
Precipitation
Precipitation 0.01 in 0.04 in 0.67 in (1992)
Month to date precipitation 0.69  
Year to date precipitation 6.36  
Snow
Snow 0.00 in 0.10 in 5.40 in (1985)
Month to date snowfall 1.6  
Year to date snowfall 10.3  
Since 1 July snowfall 1.7  
Snow Depth in   
Wind
Wind Speed 7 mph   
Max Wind Speed 24 mph   
Max Gust Speed 30 mph   
Visibility 10 miles   
Events Rain   

Key: T is trace of precipitation, MM is missing value
Source: NWS Daily Summary
Time(PST)TemperatureDew PointHumidity Pressure Visibility Wind DirectionWind SpeedGust SpeedPrecipitationEvents Conditions
12:53 AM 36.0°F 30.9°F 82% 29.62 in 10.0 miles West 4.6 mph - N/A   Mostly Cloudy
1:53 AM 35.1°F 30.0°F 82% 29.61 in 10.0 miles Calm Calm - N/A   Partly Cloudy
2:53 AM 39.0°F 33.1°F 79% 29.61 in 10.0 miles East 5.8 mph - 0.00 in Rain Light Rain
3:53 AM 39.9°F 34.0°F 79% 29.61 in 10.0 miles Calm Calm - 0.00 in Rain Light Rain
4:53 AM 41.0°F 35.1°F 79% 29.60 in 10.0 miles ENE 9.2 mph - 0.00 in   Overcast
5:53 AM 37.9°F 33.1°F 83% 29.65 in 10.0 miles North 6.9 mph - N/A   Mostly Cloudy
6:07 AM 39.2°F 33.8°F 81% 29.63 in 10.0 miles Variable 3.5 mph - N/A   Partly Cloudy
6:53 AM 37.0°F 30.9°F 79% 29.68 in 10.0 miles Calm Calm - N/A   Clear
7:53 AM 35.1°F 30.0°F 82% 29.71 in 10.0 miles NW 4.6 mph - N/A   Clear
8:53 AM 42.1°F 33.1°F 70% 29.76 in 10.0 miles NW 15.0 mph 21.9 mph 0.00 in   Overcast
9:53 AM 43.0°F 33.1°F 68% 29.81 in 10.0 miles NW 12.7 mph - N/A   Mostly Cloudy
10:53 AM 46.9°F 32.0°F 56% 29.83 in 10.0 miles NW 17.3 mph - N/A   Clear
11:53 AM 48.9°F 30.9°F 50% 29.83 in 10.0 miles West 4.6 mph - N/A   Partly Cloudy
12:53 PM 50.0°F 30.9°F 48% 29.84 in 10.0 miles WSW 5.8 mph - N/A   Clear
1:53 PM 48.0°F 33.1°F 56% 29.88 in 10.0 miles WNW 17.3 mph - N/A   Overcast
2:31 PM 42.8°F 33.8°F 70% 29.88 in 10.0 miles NNW 24.2 mph 29.9 mph 0.01 in Rain Light Rain
2:53 PM 41.0°F 33.1°F 73% 29.93 in 10.0 miles NW 13.8 mph 23.0 mph 0.01 in Rain Light Rain
3:53 PM 41.0°F 32.0°F 70% 29.97 in 10.0 miles WNW 6.9 mph - 0.00 in   Overcast
4:53 PM 37.0°F 28.9°F 73% 30.00 in 10.0 miles NW 8.1 mph - N/A   Clear
5:53 PM 37.0°F 28.9°F 73% 30.05 in 10.0 miles WNW 12.7 mph 19.6 mph N/A   Partly Cloudy
6:53 PM 37.0°F 28.9°F 73% 30.08 in 10.0 miles NNW 11.5 mph - N/A   Clear
7:53 PM 37.0°F 30.0°F 76% 30.12 in 10.0 miles NW 10.4 mph - N/A   Clear
8:53 PM 34.0°F 28.0°F 79% 30.15 in 10.0 miles NW 3.5 mph - N/A   Clear
9:53 PM 34.0°F 27.0°F 75% 30.18 in 10.0 miles Calm Calm - N/A   Clear
10:53 PM 35.1°F 27.0°F 72% 30.22 in 10.0 miles NW 9.2 mph - N/A   Clear
11:53 PM 35.1°F 27.0°F 72% 30.25 in 10.0 miles Variable 4.6 mph - N/A   Clear
Moon Phase
Nov. 21 Nov. 28 Dec. 06 Dec. 13 Dec. 20
Sunrise:07:14 AM (PST) Moon Rise:01:01 PM (PST)11/21
Sunset:04:20 PM (PST) Moon Set:12:15 AM (PST)11/21

Copyright © 2014 The Weather Underground, Inc.